Tracking 19795 objects as of 17-Jul-2019
HD Live streaming from Space Station
objects crossing your sky now

SL-16 R/B

Track SL-16 R/B now!
10-day predictions
SL-16 R/B is classified as:


NORAD ID: 25400
Int'l Code: 1998-043G
Perigee: 807.7 km
Apogee: 820.6 km
Inclination: 98.6 °
Period: 101.0 minutes
Semi major axis: 7185 km
RCS: 12.0301 m2 (large)
Launch date: July 10, 1998
Source: Commonwealth of Independent States (former USSR) (CIS)
Launch site: TYURATAM MISSILE AND SPACE COMPLEX (TTMTR)

Note: This is a ROCKET BODY
aabbcc
Your satellite tracking list
Your tracking list is empty




NASA's NSSDC Master Catalog

Two Line Element Set (TLE):
1 25400U 98043G   19197.43521647 -.00000046  00000-0 -10216-5 0  9991
2 25400  98.5730 135.2284 0008924 234.3047 125.7303 14.25441890 93232
Source of the keplerian elements: AFSPC